Weather History for Fort Madison, IA

Change the Weather History Date:

Thursday, April 18, 2013

  Actual Average Record
Temperature  
Mean Temperature 50 °F -  
Max Temperature 62 °F 65 °F 89 °F (2002)
Min Temperature 39 °F 43 °F 26 °F (1983)
Degree Days  
Heating Degree Days 14    
Moisture  
Dew Point 49 °F    
Average Humidity 88    
Maximum Humidity 100    
Minimum Humidity 70    
Precipitation  
Precipitation 1.52 in - - ()
Sea Level Pressure  
Sea Level Pressure 29.60 in    
Wind  
Wind Speed 11 mph (South)    
Max Wind Speed 23 mph    
Max Gust Speed 34 mph    
Visibility 8 miles    
Events Rain    
Averages and records for this station are not official NWS values.
T = Trace of Precipitation, MM = Missing Value Source: NWS Daily Summary

Daily Weather History Graph

Daily Weather History Graph

Search for Another Location

Airport:

Trip Planner

Search our weather history database for the weather conditions in past years. The results will help you decide how hot, cold, wet, or windy it might be!

Date:

Astronomy

Apr. 18, 2013 Rise Set
Actual Time 6:21 AM CDT 7:48 PM CDT
Civil Twilight 5:53 AM CDT 8:16 PM CDT
Nautical Twilight 5:18 AM CDT 8:51 PM CDT
Astronomical Twilight 4:42 AM CDT 9:27 PM CDT
Moon 12:33 PM CDT (4/18) 2:03 AM CDT (4/18)
Length of Visible Light 14h 23m
Length of Day
13h 26m
First Quarter, 52% of the Moon is Illuminated
Apr 18
First Quarter
Apr 25
Full
May 2
Last Quarter
May 9
New
May 17
First Quarter

Hourly Weather History & Observations

Time (CDT) Temp. Windchill Dew Point Humidity Pressure Visibility Wind Dir Wind Speed Gust Speed Precip Events Conditions
12:15 AM 55.4 °F - 53.6 °F 94% 29.71 in 7.0 mi NNE 8.1 mph - 0.08 in Rain Heavy Rain
12:35 AM 55.4 °F - 53.6 °F 94% 29.70 in 10.0 mi NNE 9.2 mph - 0.18 in Rain Heavy Rain
12:55 AM 55.4 °F - 53.6 °F 94% 29.72 in 5.0 mi Calm Calm - 0.33 in Rain Heavy Rain
1:15 AM 55.4 °F - 53.6 °F 94% 29.69 in 7.0 mi NE 9.2 mph - 0.15 in Rain Heavy Rain
1:35 AM 55.4 °F - 53.6 °F 94% 29.69 in 7.0 mi NE 10.4 mph - 0.24 in Rain Rain
1:55 AM 55.4 °F - 53.6 °F 94% 29.65 in 5.0 mi NE 11.5 mph - 0.35 in Rain Heavy Rain
2:15 AM 55.4 °F - 53.6 °F 94% 29.62 in 10.0 mi East 16.1 mph 21.9 mph 0.04 in Rain Light Rain
2:35 AM 55.4 °F - 53.6 °F 94% 29.64 in 10.0 mi East 11.5 mph - 0.09 in Rain Rain
2:55 AM 55.4 °F - 53.6 °F 94% 29.63 in 7.0 mi NE 9.2 mph - 0.20 in Rain Rain
3:15 AM 55.4 °F - 53.6 °F 94% 29.62 in 10.0 mi NNE 8.1 mph - 0.04 in Rain Light Rain
3:35 AM 55.4 °F - 53.6 °F 94% 29.59 in 7.0 mi ENE 9.2 mph - 0.07 in Rain Rain
3:55 AM 55.4 °F - 53.6 °F 94% 29.58 in 10.0 mi East 15.0 mph 18.4 mph 0.11 in Rain Light Rain
4:15 AM 55.4 °F - 53.6 °F 94% 29.61 in 7.0 mi East 9.2 mph - 0.04 in Rain Light Rain
4:35 AM 55.4 °F - 53.6 °F 94% 29.61 in 10.0 mi East 11.5 mph - 0.11 in Rain Rain
4:55 AM 55.4 °F - 53.6 °F 94% 29.55 in 10.0 mi East 16.1 mph 25.3 mph 0.16 in Rain Light Rain
5:15 AM 55.4 °F - 53.6 °F 94% 29.54 in 10.0 mi East 15.0 mph - 0.02 in Rain Light Rain
5:35 AM 55.4 °F - 53.6 °F 94% 29.55 in 10.0 mi ENE 9.2 mph - 0.02 in Rain Light Rain
5:55 AM 55.4 °F - 55.4 °F 100% 29.57 in 10.0 mi East 8.1 mph - 0.02 in   Light Drizzle
6:15 AM 57.2 °F - 55.4 °F 94% 29.60 in 7.0 mi SE 4.6 mph - 0.03 in Rain Rain
6:35 AM 57.2 °F - 55.4 °F 94% 29.58 in 10.0 mi SE 8.1 mph - 0.13 in Rain Heavy Rain
6:55 AM 57.2 °F - 55.4 °F 94% 29.55 in 10.0 mi East 9.2 mph - 0.19 in Rain Rain
7:15 AM 57.2 °F - 55.4 °F 94% 29.54 in 10.0 mi East 6.9 mph - 0.01 in Rain Light Rain
7:35 AM 55.4 °F - 55.4 °F 100% 29.52 in 7.0 mi East 9.2 mph - 0.01 in   Light Drizzle
7:55 AM 57.2 °F - 55.4 °F 94% 29.57 in 10.0 mi SE 3.5 mph - 0.01 in   Overcast
8:15 AM 57.2 °F - 55.4 °F 94% 29.59 in 10.0 mi Calm Calm - N/A   Overcast
8:35 AM 55.4 °F - 55.4 °F 100% 29.59 in 3.0 mi SSW 3.5 mph - N/A   Overcast
8:55 AM 57.2 °F - 55.4 °F 94% 29.58 in 2.0 mi South 3.5 mph - N/A   Overcast
9:15 AM 57.2 °F - 55.4 °F 94% 29.55 in 2.5 mi SSE 6.9 mph - N/A   Overcast
9:35 AM 57.2 °F - 55.4 °F 94% 29.56 in 5.0 mi South 6.9 mph - N/A   Overcast
9:55 AM 57.2 °F - 55.4 °F 94% 29.57 in 4.0 mi South 10.4 mph - N/A   Overcast
10:15 AM 57.2 °F - 57.2 °F 100% 29.56 in 4.0 mi SSE 11.5 mph - 0.01 in Rain Rain
10:35 AM 59.0 °F - 57.2 °F 94% 29.53 in 10.0 mi SE 11.5 mph - 0.05 in Rain Light Rain
10:55 AM 59.0 °F - 57.2 °F 94% 29.47 in 10.0 mi ESE 10.4 mph 17.3 mph 0.06 in Rain Light Rain
11:15 AM 60.8 °F - 59.0 °F 94% 29.51 in 10.0 mi South 5.8 mph - N/A   Overcast
11:35 AM 60.8 °F - 59.0 °F 94% 29.50 in 10.0 mi South 9.2 mph - N/A   Overcast
11:55 AM 60.8 °F - 59.0 °F 94% 29.51 in 10.0 mi South 9.2 mph - N/A   Overcast
12:15 PM 60.8 °F - 59.0 °F 94% 29.48 in 10.0 mi SSE 15.0 mph 19.6 mph N/A   Overcast
12:35 PM 62.6 °F - 60.8 °F 94% 29.47 in 4.0 mi SSE 17.3 mph 26.5 mph N/A   Light Drizzle
12:55 PM 62.6 °F - 60.8 °F 94% 29.45 in 2.5 mi SSE 13.8 mph 20.7 mph N/A   Overcast
1:15 PM 62.6 °F - 60.8 °F 94% 29.45 in 3.0 mi SSE 16.1 mph 24.2 mph 0.01 in Rain Rain
1:35 PM 62.6 °F - 60.8 °F 94% 29.46 in 3.0 mi SSE 15.0 mph 23.0 mph 0.01 in   Overcast
1:55 PM 62.6 °F - 60.8 °F 94% 29.50 in 2.0 mi WSW 23.0 mph 26.5 mph 0.06 in Rain Heavy Rain
2:15 PM 53.6 °F - 50.0 °F 88% 29.52 in 1.5 mi West 17.3 mph 27.6 mph 0.01 in   Light Drizzle
2:35 PM 50.0 °F - 48.2 °F 94% 29.53 in 1.8 mi WSW 19.6 mph 27.6 mph 0.03 in   Drizzle
2:55 PM 48.2 °F - 46.4 °F 93% 29.54 in 5.0 mi WSW 18.4 mph 25.3 mph 0.03 in   Overcast
3:35 PM 46.4 °F 40.4 °F 44.6 °F 93% 29.56 in 10.0 mi WSW 13.8 mph 25.3 mph N/A   Overcast
3:55 PM 46.4 °F 39.8 °F 42.8 °F 87% 29.58 in 10.0 mi WSW 16.1 mph 24.2 mph N/A   Overcast
4:15 PM 46.4 °F 40.1 °F 42.8 °F 87% 29.58 in 10.0 mi WSW 15.0 mph 24.2 mph N/A   Overcast
4:35 PM 46.4 °F 39.2 °F 41.0 °F 81% 29.58 in 10.0 mi WSW 18.4 mph 23.0 mph N/A   Overcast
4:55 PM 46.4 °F 39.2 °F 39.2 °F 76% 29.60 in 10.0 mi WSW 18.4 mph 26.5 mph N/A   Overcast
5:15 PM 46.4 °F 39.8 °F 39.2 °F 76% 29.60 in 10.0 mi WSW 16.1 mph 29.9 mph N/A   Overcast
5:35 PM 46.4 °F 39.5 °F 37.4 °F 71% 29.61 in 10.0 mi West 17.3 mph 26.5 mph N/A   Overcast
5:55 PM 44.6 °F 36.6 °F 37.4 °F 76% 29.62 in 10.0 mi WSW 19.6 mph 27.6 mph N/A   Overcast
6:15 PM 44.6 °F 39.2 °F 37.4 °F 76% 29.64 in 7.0 mi WSW 10.4 mph 19.6 mph N/A   Overcast
6:35 PM 44.6 °F 37.8 °F 37.4 °F 76% 29.64 in 10.0 mi West 15.0 mph 24.2 mph N/A   Overcast
6:55 PM 44.6 °F 36.6 °F 35.6 °F 71% 29.64 in 10.0 mi West 19.6 mph 27.6 mph N/A   Overcast
7:15 PM 44.6 °F 35.9 °F 35.6 °F 71% 29.65 in 10.0 mi West 23.0 mph 28.8 mph N/A   Overcast
7:35 PM 42.8 °F 35.1 °F 33.8 °F 70% 29.67 in 10.0 mi West 16.1 mph 29.9 mph N/A   Overcast
7:55 PM 42.8 °F 36.2 °F 33.8 °F 70% 29.69 in 10.0 mi West 12.7 mph 31.1 mph N/A   Overcast
8:15 PM 41.0 °F 32.2 °F 33.8 °F 76% 29.70 in 7.0 mi West 18.4 mph 34.5 mph N/A   Overcast
8:35 PM 41.0 °F 32.5 °F 33.8 °F 76% 29.71 in 10.0 mi West 17.3 mph 26.5 mph N/A   Overcast
9:55 PM 39.2 °F 29.6 °F 30.2 °F 70% 29.72 in 10.0 mi West 19.6 mph 27.6 mph N/A   Overcast
10:35 PM 39.2 °F 30.2 °F 30.2 °F 70% 29.72 in 10.0 mi West 17.3 mph 25.3 mph N/A   Overcast
10:55 PM 39.2 °F 29.6 °F 30.2 °F 70% 29.72 in 10.0 mi West 19.6 mph 26.5 mph N/A   Overcast
11:15 PM 39.2 °F 30.8 °F 30.2 °F 70% 29.71 in 10.0 mi West 15.0 mph 24.2 mph N/A   Overcast
11:35 PM 39.2 °F 30.2 °F 30.2 °F 70% 29.70 in 10.0 mi West 17.3 mph 25.3 mph N/A   Overcast
11:55 PM 39.2 °F 31.2 °F 30.2 °F 70% 29.69 in 10.0 mi West 13.8 mph 20.7 mph N/A   Overcast